Location: Hurecourt
(47.9030°N, 6.0653°E)
Time: 15:48:32
(UTC+00:00)

Daily predictions for brighter satellites

Satellite Brightness Start Highest point End
(mag) Time Altitude Azimuth Time Altitude Azimuth Time Altitude Azimuth
Cosmos 1544 Rocket 4.1 20:09:59 10° N 20:14:17 44° ENE 20:18:30 10° SSE
ATLAS CENTAUR R/B 1.7 20:11:06 10° NW 20:15:24 69° NE 20:19:58 10° SE
SPOT 1/Viking Rocket 3.7 20:10:46 10° SSE 20:15:50 62° ENE 20:20:55 10° N
IGS 5A 3.6 20:11:43 10° S 20:15:53 80° WSW 20:20:04 10° NNW
Cosmos 1461 3.5 20:11:47 10° NW 20:15:53 50° WSW 20:19:47 10° SSE
Cosmos 1844 3.7 20:10:34 10° NNW 20:16:11 81° ENE 20:21:48 10° SSE
Landsat 7 3.9 20:13:27 10° SSE 20:18:13 88° WSW 20:23:01 10° NNW
Cosmos 1455 Rocket 3.1 20:14:07 10° N 20:18:36 78° E 20:23:04 10° SSE
Cosmos 1726 4.1 20:15:32 10° NNW 20:18:41 27° W 20:21:48 10° SSW
Lacrosse 5 rocket 0.9 20:19:45 10° SW 20:23:28 83° SE 20:27:05 10° NE
ARIANE 5 R/B 3.2 20:24:36 10° SE 20:28:53 47° ENE 20:33:13 10° N
Cosmos 1674 2.6 20:25:20 10° S 20:29:02 90° W 20:32:46 10° N
KORONAS-FOTON 3.8 20:25:22 10° S 20:29:09 90° W 20:32:57 10° N
Cosmos 2100 Rocket 4.1 20:23:06 10° N 20:29:31 84° E 20:35:49 10° S
Cosmos 2237 Rocket 4.0 20:27:48 10° ESE 20:29:48 12° E 20:31:50 10° ENE
Cosmos 2360 Rocket 2.3 20:25:45 10° SSW 20:31:24 87° WNW 20:37:05 10° NNE
Ariane Rocket 4.4 20:27:49 10° SSW 20:32:31 37° W 20:37:16 10° NNW
Cosmos 2322 Rocket 3.3 20:30:49 10° SW 20:36:21 51° WNW 20:41:57 10° NNE
SL-14 R/B 3.9 20:33:05 10° SSE 20:36:52 40° E 20:40:39 10° NNE
SL-16 R/B 3.7 20:31:53 10° WSW 20:37:14 41° NW 20:42:37 10° NNE
Cosmos 2173 Rocket 4.1 20:34:22 10° N 20:40:48 86° W 20:47:10 10° S
Cosmos 1025 Rocket 3.0 20:38:08 10° S 20:42:29 73° E 20:46:51 10° NNE
Cosmos 2016 Rocket 4.0 20:38:55 10° N 20:45:01 70° E 20:51:08 10° SSE
SPOT 3 Rocket 4.2 20:40:03 10° S 20:45:05 54° W 20:50:12 10° NNW
Cosmos 1953 3.0 20:42:17 10° NNW 20:46:16 54° W 20:50:13 10° S
Meteor 1-24 Rocket 4.4 20:41:31 10° SSE 20:46:18 34° E 20:51:14 10° NNE
Cosmos 1300 3.2 20:43:23 10° N 20:47:05 45° ENE 20:50:17 13° SSE
Cosmos 389 Rocket 4.3 20:46:10 10° NNE 20:48:42 19° ENE 20:51:04 11° ESE
Cosmos 968 Rocket 3.8 20:43:59 10° NNW 20:49:00 54° ENE 20:53:33 13° SE
Cosmos 1536 Rocket 4.0 20:45:12 10° SSE 20:49:28 47° E 20:53:45 10° NNE
Cosmos 1340 2.7 20:48:13 10° S 20:51:56 62° E 20:55:41 10° NNE
FALCON 9 DEB 4.3 20:49:17 10° W 20:52:36 46° NNW 20:55:56 10° ENE
Cosmos 1867 3.9 20:47:33 10° NNW 20:53:01 63° NE 20:58:01 12° SE
Cosmos 1486 Rocket 4.5 20:53:57 10° NNW 20:59:03 50° ENE 21:03:22 14° SE
FALCON 9 DEB 2.7 20:56:37 10° WSW 20:59:44 81° SSE 21:02:53 10° ENE
Cosmos 1844 Rocket 3.7 20:54:42 10° NW 21:00:00 41° WSW 21:05:15 10° S
Cosmos 1725 Rocket 4.0 20:54:00 10° N 21:00:13 78° E 21:06:08 11° SSE
DNEPR-1 R/B 3.8 20:56:15 10° NW 21:00:26 62° SW 21:04:07 14° SSE
CARTOSAT-1 3.6 20:56:53 11° S 21:01:05 80° WSW 21:05:26 10° NNW
Cosmos 2322 3.7 20:55:53 10° SSW 21:01:32 79° ESE 21:07:13 10° NNE
Cosmos 2278 Rocket 2.9 20:56:16 10° NNW 21:01:43 44° NE 21:06:37 12° SE
H-2A R/B 4.4 21:00:26 10° NE 21:04:02 29° E 21:06:36 16° SSE
COSMOS 2428 2.8 20:58:48 10° S 21:04:25 59° ESE 21:10:05 10° NE
ATLAS 3B R/B 2.6 21:03:16 10° SW 21:09:50 86° SE 21:16:39 10° NE
Cosmos 1626 3.0 21:08:05 10° SSW 21:11:40 49° WNW 21:15:17 10° N
FALCON 9 DEB 3.3 21:10:37 10° WSW 21:13:42 64° NNW 21:16:47 10° ENE
Meteor 2-10 Rocket 3.8 21:09:55 10° N 21:14:53 53° ENE 21:18:34 17° SSE
ATLAS CENTAUR R/B 4.1 21:13:47 15° SE 21:16:11 19° E 21:22:12 10° ENE
Cosmos 405 3.4 21:13:26 10° NNW 21:16:50 56° W 21:19:35 14° S
CZ-4B DEB 4.5 21:16:17 21° SSE 21:18:11 56° ENE 21:21:19 10° N
Cosmos 1943 Rocket 4.3 21:18:26 10° N 21:22:09 18° NE 21:25:51 10° E
FALCON 9 DEB 3.2 21:20:00 10° WSW 21:23:05 67° NNW 21:26:12 10° ENE
FALCON 9 DEB 3.5 21:21:35 10° WSW 21:24:39 58° NNW 21:27:44 10° ENE
Terra 1.8 21:24:33 17° SSE 21:28:13 88° WSW 21:33:01 10° NNW
ERS-1 Rocket 3.3 21:24:00 14° S 21:28:19 65° WSW 21:33:21 10° NNW
Resurs 01 Rocket 4.1 21:26:41 10° SW 21:29:19 15° W 21:31:57 10° NW
Geosat 4.2 21:27:07 18° SSE 21:30:54 67° WSW 21:35:56 10° NNW
USA 215 4.1 21:31:23 10° ENE 21:36:41 26° SE 21:39:58 18° SSE
NOSS 0 Rocket 4.1 21:32:45 10° S 21:38:43 57° ESE 21:44:49 10° NE
Cosmos 1980 4.0 21:36:06 16° S 21:40:16 46° ESE 21:45:42 10° NE
Cosmos 1726 Rocket 4.0 21:36:21 10° N 21:40:44 52° ENE 21:43:17 23° SE
SPOT 5 3.6 21:36:40 14° S 21:40:52 50° W 21:45:35 10° NNW
Cosmos 1346 Rocket 2.8 21:38:56 20° S 21:41:35 70° E 21:45:36 10° NNE
Cosmos 1184 Rocket 4.2 21:41:12 21° ESE 21:41:52 23° E 21:44:30 10° NE
Cosmos 2058 Rocket 4.0 21:39:43 10° N 21:43:49 35° ENE 21:46:11 21° SE
Cosmos 2219 Rocket 2.9 21:44:44 10° SW 21:50:19 56° WNW 21:55:55 10° NNE
SJ 16-02 3.5 21:48:35 10° N 21:51:38 18° NE 21:54:41 10° E
SL-4 R/B 1.9 21:48:21 10° SW 21:52:27 61° SSE 21:56:15 10° ENE
ATLAS CENTAUR R/B 3.6 21:50:53 10° WNW 21:53:55 18° WSW 21:56:39 11° SSW
Cosmos 2333 Rocket 3.3 21:50:42 10° SW 21:56:12 46° NW 22:01:43 10° NNE
Iridium 2 3.9 21:54:38 29° SSE 21:56:14 54° E 21:59:54 10° NNE
Cosmos 1606 Rocket 3.6 21:52:19 10° N 21:56:50 86° W 21:59:21 25° S
Cosmos 1503 Rocket 4.0 21:53:57 10° NNW 21:59:22 90° WSW 22:02:37 25° SSE
Cosmos 1703 4.4 21:58:22 24° ESE 21:59:38 29° E 22:03:05 10° NNE
Meteor 2-5 Rocket 4.5 21:56:09 10° SSW 22:01:32 50° WNW 22:07:02 10° N
Lacrosse 5 rocket 3.4 21:59:47 10° WNW 22:02:53 26° NNW 22:05:58 10° NE
Cosmos 1892 Rocket 3.7 22:01:08 27° SSE 22:03:24 61° E 22:07:49 10° NNE
Cosmos 2233 Rocket 4.5 21:59:07 10° NNW 22:05:05 55° W 22:09:55 16° SSW
Cosmos 1455 2.1 22:07:45 10° N 22:11:36 87° E 22:13:08 34° S
SL-16 R/B 3.3 22:09:42 23° SE 22:11:44 28° ESE 22:16:29 10° NE
USA 267 4.0 22:05:28 10° E 22:11:47 53° NNE 22:18:07 10° NW
Meteor 2-1 Rocket 4.3 22:06:54 10° N 22:12:25 65° ENE 22:15:37 26° SSE
Cosmos 2237 Rocket 2.1 22:08:26 17° SSW 22:12:52 76° ESE 22:18:29 10° NNE
Cosmos 1891 Rocket 4.5 22:08:31 10° N 22:14:45 79° E 22:18:37 25° SSE
GEOS 3 Rocket 4.1 22:13:21 17° ESE 22:17:30 61° NE 22:22:45 10° NW
Cosmos 1513 Rocket 4.4 22:11:25 10° N 22:17:33 80° E 22:21:15 26° SSE
BREEZE-M DEB (TANK) 2.5 22:15:50 10° W 22:18:47 80° N 22:26:26 10° ENE
Cosmos 2369 Rocket 4.0 22:15:44 10° N 22:20:23 25° NE 22:25:00 10° E
ALOS 2 3.6 22:18:46 22° ESE 22:20:58 38° ENE 22:25:02 10° N
Cosmos 389 Rocket 3.9 22:20:22 10° NNW 22:23:23 29° W 22:24:52 21° SW
Cosmos 2228 4.2 22:19:54 10° NNW 22:23:58 37° W 22:26:31 19° SSW
Cosmos 1607 4.2 22:20:31 10° NW 22:26:49 60° WSW 22:30:17 27° S
Spot 4 3.8 22:27:55 31° SSE 22:30:15 80° ENE 22:35:04 10° NNW
Cosmos 1626 Rocket 4.3 22:28:46 30° SE 22:30:18 40° E 22:34:28 10° NNE
Cosmos 1602 Rocket 4.5 22:37:29 28° SE 22:38:58 36° E 22:43:04 10° NNE
Cosmos 2346 Rocket 4.4 22:36:19 26° S 22:39:54 80° E 22:46:08 10° N
Cosmos 1777 Rocket 4.0 22:38:11 10° NNW 22:43:31 89° W 22:46:06 31° SSE
Cosmos 2278 Rocket 3.2 22:40:37 10° NW 22:45:40 34° WSW 22:48:27 22° SSW
Cosmos 2297 3.8 22:43:59 10° NNW 22:49:39 73° ENE 22:52:49 27° SE
Cosmos 1464 Rocket 4.3 22:50:12 10° NNW 22:56:28 60° W 23:00:09 25° SSW
BREEZE-M DEB (TANK) 2.6 22:48:27 10° WSW 22:56:31 70° SSE 22:59:22 10° ENE
USA 229 DEB 4.3 22:54:53 28° SSE 22:57:11 36° ESE 23:03:14 10° NE
USA 229 4.3 22:55:01 28° SSE 22:57:18 35° ESE 23:03:20 10° NE
Meteor 1-4 Rocket 2.3 22:54:25 10° NNW 22:57:53 86° W 22:58:33 56° S
ATLAS 3B R/B 4.4 22:55:25 10° W 23:01:18 32° NNW 23:07:25 10° NE
NOSS 3-1 (C) 3.3 23:02:14 32° S 23:04:37 56° ESE 23:10:42 10° NE
Cosmos 1634 Rocket 4.3 22:59:01 10° N 23:05:17 59° ENE 23:08:51 26° SSE
Terra 4.3 23:05:05 10° WSW 23:06:40 11° W 23:08:16 10° WNW
Cosmos 1943 Rocket 2.2 23:01:18 10° NNW 23:06:51 78° ENE 23:09:47 29° SE
Meteor 1-11 4.2 23:11:48 33° S 23:14:22 71° E 23:19:57 10° NNE
Cosmos 1812 Rocket 3.5 23:10:35 10° N 23:14:59 87° E 23:16:27 41° SSE
Cosmos 1892 4.0 23:14:27 26° ESE 23:15:17 29° E 23:18:40 10° NNE
NOSS 2-3 (E) 3.8 23:14:30 42° SSE 23:15:26 51° ESE 23:20:03 10° NE
Cosmos 1816 Rocket 4.5 23:12:53 28° SSW 23:16:19 78° W 23:22:29 10° N
COBE Rocket 4.3 23:14:22 31° SSW 23:16:27 52° W 23:21:15 10° NNW
Meteor 1-27 4.5 23:11:08 10° N 23:16:39 60° ENE 23:19:32 28° SE
Cosmos 1441 Rocket 4.4 23:15:09 24° WSW 23:16:50 36° WNW 23:20:23 10° N
NOSS 3-1 (A) 3.8 23:15:08 32° SSE 23:16:52 41° ESE 23:22:34 10° NE
Okean 1-7 Rocket 4.5 23:15:34 24° SW 23:17:50 42° WNW 23:22:04 10° N
Cosmos 1898 Rocket 4.5 23:14:19 10° NNW 23:19:18 41° ENE 23:22:50 18° ESE
USA 215 3.2 23:13:46 10° NE 23:20:21 81° SE 23:26:54 10° SW
Cosmos 1943 4.4 23:21:51 22° SE 23:23:42 26° ESE 23:28:19 10° NE
Cosmos 1408 3.7 23:27:00 29° ESE 23:27:40 31° E 23:30:58 10° NNE
Cosmos 1869 4.0 23:25:23 10° N 23:29:22 48° ENE 23:30:46 33° SE
BREEZE-M DEB (TANK) 4.4 23:25:26 10° WNW 23:29:40 83° N 23:46:07 10° ESE
SJ 16-02 1.5 23:26:18 10° NNW 23:30:38 60° WSW 23:31:53 42° SSW
SL-4 R/B 2.6 23:28:13 10° W 23:32:07 52° N 23:35:44 10° ENE
CZ-3B R/B 4.4 23:17:34 10° W 23:35:24 53° NNW 23:39:48 10° ENE
Cosmos 1825 3.7 23:35:53 22° ESE 23:36:47 24° E 23:39:51 10° NE
EP 2 4.4 23:39:20 78° ESE 23:39:20 78° ESE 23:42:20 10° NE
Nimbus 7 Rocket 4.5 23:35:58 10° NNE 23:42:03 81° WNW 23:45:25 28° SSW
Lacrosse 5 rocket 3.9 23:40:13 10° NW 23:42:54 19° N 23:45:34 10° NE
Cosmos 1656 Rocket 4.3 23:37:18 10° NNW 23:42:54 54° ENE 23:47:14 17° SE
Cosmos 1825 Rocket 3.6 23:41:53 40° SSE 23:43:21 69° E 23:47:47 10° NNE
Lacrosse 4 Rocket 3.7 23:41:30 10° N 23:44:42 21° NE 23:47:52 10° E
GP-B 3.2 23:41:38 10° N 23:46:04 68° W 23:47:38 39° SSW
Cosmos 468 Rocket 4.3 23:44:16 34° SSE 23:46:13 54° ESE 23:51:20 10° NNE
